UAE417 ZSPD-RCTP

Flight info

Callsign UAE417
Flight time 1h 35m
Altitude 36000
Route MIG02D MIGOL B591 KASKA/N0478F360 L2 BERBA B591 BAKER BAKER1A
Aircraft A388/J-SADE2E3FGHIJ3J4J5M1RWXY/LB1D1

Departure

Time 2026-05-07 14:06
Airport Shanghai Pudong International Airport (ZSPD)

Arrival

Time 2026-05-07 15:41
Airport Taiwan Taoyuan International Airport (RCTP)
Time Latitude Longitude Altitude Speed Heading
2026-05-07 13:30 31.15285 121.80771 28 ft 0 kts 252°
2026-05-07 13:50 31.15281 121.80780 14 ft 0 kts 308°
2026-05-07 13:50 31.15278 121.80796 15 ft 3 kts 262°
2026-05-07 13:51 31.15285 121.80815 6 ft 2 kts 248°
2026-05-07 13:51 31.15292 121.80832 0 ft 3 kts 234°
2026-05-07 13:51 31.15306 121.80843 9 ft 2 kts 208°
2026-05-07 13:51 31.15323 121.80846 32 ft 3 kts 173°
2026-05-07 13:52 31.15335 121.80843 27 ft 0 kts 166°
2026-05-07 13:54 31.15333 121.80843 28 ft 2 kts 165°
2026-05-07 13:55 31.15307 121.80852 28 ft 6 kts 162°
2026-05-07 13:55 31.15251 121.80876 28 ft 11 kts 160°
2026-05-07 13:55 31.15161 121.80911 28 ft 14 kts 162°
2026-05-07 13:55 31.15091 121.80937 28 ft 13 kts 162°
2026-05-07 13:56 31.14988 121.80976 28 ft 18 kts 162°
2026-05-07 13:56 31.14880 121.81016 28 ft 3 kts 162°
2026-05-07 13:56 31.14837 121.81032 28 ft 9 kts 161°
2026-05-07 13:56 31.14821 121.81039 27 ft 3 kts 158°
2026-05-07 13:57 31.14819 121.81040 27 ft 0 kts 157°
2026-05-07 13:57 31.14811 121.81046 28 ft 3 kts 136°
2026-05-07 13:57 31.14804 121.81062 28 ft 5 kts 106°
2026-05-07 13:58 31.14803 121.81119 28 ft 8 kts 71°
2026-05-07 13:58 31.14827 121.81192 28 ft 11 kts 71°
2026-05-07 13:58 31.14852 121.81278 28 ft 5 kts 71°
2026-05-07 13:58 31.14855 121.81328 28 ft 7 kts 110°
2026-05-07 13:59 31.14821 121.81364 28 ft 8 kts 163°
2026-05-07 13:59 31.14750 121.81386 28 ft 13 kts 162°
2026-05-07 13:59 31.14648 121.81426 28 ft 18 kts 161°
2026-05-07 13:59 31.14513 121.81477 27 ft 22 kts 163°
2026-05-07 14:00 31.14353 121.81537 28 ft 26 kts 161°
2026-05-07 14:00 31.14174 121.81605 28 ft 29 kts 162°
2026-05-07 14:00 31.13980 121.81676 28 ft 30 kts 161°
2026-05-07 14:00 31.13776 121.81755 28 ft 32 kts 161°
2026-05-07 14:01 31.13561 121.81837 27 ft 32 kts 161°
2026-05-07 14:01 31.13389 121.81900 27 ft 26 kts 162°
2026-05-07 14:01 31.13204 121.81970 27 ft 29 kts 162°
2026-05-07 14:01 31.13005 121.82046 27 ft 31 kts 162°
2026-05-07 14:02 31.12838 121.82109 28 ft 24 kts 162°
2026-05-07 14:02 31.12676 121.82169 28 ft 13 kts 162°
2026-05-07 14:02 31.12660 121.82175 28 ft 4 kts 162°
2026-05-07 14:02 31.12619 121.82195 28 ft 7 kts 139°
2026-05-07 14:03 31.12608 121.82238 28 ft 6 kts 80°
2026-05-07 14:03 31.12609 121.82245 28 ft 0 kts 72°
2026-05-07 14:04 31.12609 121.82246 28 ft 1 kts 72°
2026-05-07 14:04 31.12616 121.82271 28 ft 5 kts 72°
2026-05-07 14:04 31.12631 121.82324 28 ft 8 kts 71°
2026-05-07 14:04 31.12655 121.82382 27 ft 7 kts 28°
2026-05-07 14:05 31.12697 121.82388 27 ft 0 kts 342°
2026-05-07 14:05 31.12707 121.82385 26 ft 4 kts 342°
2026-05-07 14:05 31.12839 121.82336 27 ft 57 kts 341°
2026-05-07 14:05 31.13462 121.82101 28 ft 126 kts 342°
2026-05-07 14:06 31.14419 121.81721 172 ft 155 kts 343°
2026-05-07 14:06 31.15444 121.81307 693 ft 155 kts 343°
2026-05-07 14:06 31.16448 121.80884 1293 ft 155 kts 343°
2026-05-07 14:06 31.17489 121.80452 1641 ft 163 kts 353°
2026-05-07 14:07 31.18658 121.80377 1980 ft 173 kts
2026-05-07 14:07 31.19931 121.80488 2158 ft 199 kts
2026-05-07 14:07 31.21401 121.80638 2520 ft 226 kts 356°
2026-05-07 14:07 31.22913 121.79879 3127 ft 248 kts 329°
2026-05-07 14:08 31.24363 121.78837 4017 ft 248 kts 341°
2026-05-07 14:08 31.26038 121.78620 4881 ft 258 kts
2026-05-07 14:08 31.27828 121.79445 5632 ft 277 kts 32°
2026-05-07 14:08 31.29135 121.81135 6362 ft 293 kts 59°
2026-05-07 14:09 31.29738 121.83461 7247 ft 300 kts 86°
2026-05-07 14:09 31.29463 121.85871 8107 ft 302 kts 112°
2026-05-07 14:09 31.28439 121.87975 8960 ft 304 kts 128°
2026-05-07 14:09 31.27219 121.90018 9792 ft 309 kts 124°
2026-05-07 14:10 31.26158 121.92226 10467 ft 321 kts 118°
2026-05-07 14:10 31.25235 121.94722 10712 ft 346 kts 112°
2026-05-07 14:10 31.24413 121.97469 10969 ft 366 kts 109°
2026-05-07 14:10 31.23634 122.00335 11571 ft 373 kts 108°
2026-05-07 14:11 31.22860 122.03246 12291 ft 377 kts 108°
2026-05-07 14:11 31.22074 122.06181 12961 ft 382 kts 108°
2026-05-07 14:11 31.21265 122.09173 13653 ft 387 kts 108°
2026-05-07 14:11 31.20446 122.12183 14266 ft 392 kts 108°
2026-05-07 14:12 31.19609 122.15246 14883 ft 396 kts 109°
2026-05-07 14:12 31.18763 122.18333 15479 ft 401 kts 109°
2026-05-07 14:12 31.18044 122.20954 15932 ft 406 kts 109°
2026-05-07 14:12 31.17176 122.24113 16537 ft 410 kts 109°
2026-05-07 14:13 31.16300 122.27301 17111 ft 414 kts 109°
2026-05-07 14:13 31.15417 122.30508 17662 ft 419 kts 109°
2026-05-07 14:13 31.14521 122.33759 18231 ft 424 kts 109°
2026-05-07 14:13 31.13610 122.37064 18716 ft 428 kts 109°
2026-05-07 14:14 31.12694 122.40380 19202 ft 431 kts 110°
2026-05-07 14:14 31.11770 122.43725 19649 ft 435 kts 110°
2026-05-07 14:14 31.10846 122.47063 20103 ft 439 kts 110°
2026-05-07 14:14 31.09902 122.50473 20553 ft 443 kts 110°
2026-05-07 14:15 31.08953 122.53896 21003 ft 447 kts 110°
2026-05-07 14:15 31.07988 122.57370 21450 ft 450 kts 110°
2026-05-07 14:15 31.07018 122.60860 21884 ft 454 kts 110°
2026-05-07 14:15 31.06038 122.64381 22314 ft 458 kts 110°
2026-05-07 14:16 31.05049 122.67930 22745 ft 462 kts 110°
2026-05-07 14:16 31.04057 122.71489 23167 ft 466 kts 110°
2026-05-07 14:16 31.03043 122.75117 23585 ft 469 kts 110°
2026-05-07 14:16 31.02028 122.78747 23961 ft 472 kts 110°
2026-05-07 14:17 31.01353 122.81159 24213 ft 474 kts 110°
2026-05-07 14:17 31.00327 122.84823 24598 ft 476 kts 110°
2026-05-07 14:17 30.98942 122.89758 25100 ft 480 kts 110°
2026-05-07 14:17 30.98252 122.92215 25351 ft 482 kts 110°
2026-05-07 14:18 30.96865 122.97145 25868 ft 486 kts 110°
2026-05-07 14:18 30.96153 122.99673 26133 ft 487 kts 110°
2026-05-07 14:18 30.94746 123.04662 26688 ft 491 kts 110°
2026-05-07 14:18 30.93674 123.08459 27129 ft 495 kts 110°
2026-05-07 14:19 30.92944 123.11040 27432 ft 497 kts 110°
2026-05-07 14:19 30.91504 123.16130 28061 ft 501 kts 110°
2026-05-07 14:19 30.90763 123.18741 28379 ft 504 kts 110°
2026-05-07 14:19 30.89663 123.22619 28857 ft 507 kts 110°
2026-05-07 14:20 30.88549 123.26540 29342 ft 511 kts 110°
2026-05-07 14:20 30.87444 123.30425 29825 ft 515 kts 110°
2026-05-07 14:20 30.86311 123.34404 30279 ft 518 kts 110°
2026-05-07 14:20 30.85171 123.38402 30677 ft 523 kts 110°
2026-05-07 14:21 30.84020 123.42431 31075 ft 527 kts 110°
2026-05-07 14:21 30.82857 123.46497 31476 ft 531 kts 110°
2026-05-07 14:21 30.81689 123.50579 31848 ft 535 kts 110°
2026-05-07 14:21 30.80504 123.54711 32238 ft 539 kts 110°
2026-05-07 14:22 30.79139 123.58769 32589 ft 540 kts 120°
2026-05-07 14:22 30.77198 123.62485 32966 ft 538 kts 131°
2026-05-07 14:22 30.74726 123.65732 33347 ft 534 kts 142°
2026-05-07 14:22 30.71822 123.68382 33720 ft 528 kts 154°
2026-05-07 14:23 30.68594 123.70352 34077 ft 521 kts 165°
2026-05-07 14:23 30.65165 123.71576 34434 ft 511 kts 176°
2026-05-07 14:23 30.61672 123.72021 34832 ft 499 kts 188°
2026-05-07 14:23 30.58263 123.71689 35295 ft 485 kts 199°
2026-05-07 14:24 30.54994 123.70820 35791 ft 481 kts 201°
2026-05-07 14:24 30.51684 123.70055 35981 ft 491 kts 197°
2026-05-07 14:24 30.48280 123.69615 36010 ft 493 kts 192°
2026-05-07 14:25 30.41396 123.69379 36005 ft 501 kts 188°
2026-05-07 14:25 30.34366 123.69396 36004 ft 502 kts 188°
2026-05-07 14:26 30.27428 123.69414 36003 ft 502 kts 188°
2026-05-07 14:26 30.20439 123.69417 36002 ft 502 kts 188°
2026-05-07 14:27 30.13432 123.69417 36004 ft 503 kts 188°
2026-05-07 14:27 30.06429 123.69416 36003 ft 503 kts 188°
2026-05-07 14:28 29.99477 123.69416 36000 ft 503 kts 188°
2026-05-07 14:28 29.92468 123.69416 35998 ft 503 kts 188°
2026-05-07 14:29 29.85465 123.69417 35998 ft 503 kts 188°
2026-05-07 14:29 29.78453 123.69416 36001 ft 504 kts 188°
2026-05-07 14:30 29.71438 123.69416 35998 ft 504 kts 188°
2026-05-07 14:30 29.64414 123.69417 35998 ft 504 kts 188°
2026-05-07 14:31 29.57443 123.69417 35999 ft 504 kts 188°
2026-05-07 14:31 29.50427 123.69417 35998 ft 504 kts 188°
2026-05-07 14:32 29.43402 123.69417 35996 ft 504 kts 188°
2026-05-07 14:32 29.36388 123.69417 35998 ft 504 kts 188°
2026-05-07 14:33 29.29371 123.69417 35998 ft 504 kts 188°
2026-05-07 14:33 29.22341 123.69417 36001 ft 504 kts 188°
2026-05-07 14:34 29.15320 123.69417 36006 ft 504 kts 188°
2026-05-07 14:34 29.08348 123.69417 35999 ft 504 kts 188°
2026-05-07 14:35 29.01303 123.69417 35995 ft 504 kts 188°
2026-05-07 14:35 28.94327 123.69417 36002 ft 504 kts 188°
2026-05-07 14:36 28.87326 123.69417 35993 ft 503 kts 188°
2026-05-07 14:36 28.80320 123.69417 35993 ft 503 kts 188°
2026-05-07 14:37 28.73339 123.69254 35994 ft 496 kts 193°
2026-05-07 14:37 28.66622 123.67844 35991 ft 484 kts 204°
2026-05-07 14:37 28.63448 123.66652 35988 ft 478 kts 209°
2026-05-07 14:38 28.57254 123.63917 35992 ft 477 kts 209°
2026-05-07 14:38 28.51047 123.61221 35989 ft 478 kts 208°
2026-05-07 14:39 28.44878 123.58551 35989 ft 478 kts 208°
2026-05-07 14:39 28.38661 123.55861 35983 ft 478 kts 208°
2026-05-07 14:40 28.32433 123.53169 35979 ft 478 kts 208°
2026-05-07 14:40 28.26199 123.50478 35982 ft 479 kts 208°
2026-05-07 14:41 28.19965 123.47790 35979 ft 479 kts 208°
2026-05-07 14:41 28.13765 123.45121 35975 ft 480 kts 208°
2026-05-07 14:42 28.07515 123.42433 35970 ft 481 kts 208°
2026-05-07 14:42 28.01216 123.39728 35965 ft 482 kts 208°
2026-05-07 14:43 27.94942 123.37036 35966 ft 483 kts 208°
2026-05-07 14:43 27.88734 123.34377 35967 ft 484 kts 208°
2026-05-07 14:44 27.82432 123.31679 35968 ft 484 kts 207°
2026-05-07 14:44 27.76109 123.28976 35967 ft 486 kts 207°
2026-05-07 14:45 27.69775 123.26271 35974 ft 487 kts 207°
2026-05-07 14:45 27.63429 123.23565 35984 ft 487 kts 207°
2026-05-07 14:46 27.57074 123.20859 35982 ft 488 kts 207°
2026-05-07 14:46 27.50728 123.18159 35981 ft 488 kts 207°
2026-05-07 14:47 27.44356 123.15453 35987 ft 488 kts 207°
2026-05-07 14:47 27.38041 123.12775 35982 ft 489 kts 207°
2026-05-07 14:48 27.31663 123.10075 35984 ft 489 kts 207°
2026-05-07 14:48 27.25292 123.07381 35983 ft 489 kts 207°
2026-05-07 14:49 27.18919 123.04689 35978 ft 489 kts 206°
2026-05-07 14:49 27.12529 123.01993 35976 ft 490 kts 207°
2026-05-07 14:50 27.06424 122.98752 35969 ft 481 kts 216°
2026-05-07 14:50 27.00939 122.94554 35968 ft 477 kts 221°
2026-05-07 14:51 26.95530 122.90233 35969 ft 478 kts 221°
2026-05-07 14:51 26.90104 122.85925 35968 ft 478 kts 221°
2026-05-07 14:52 26.84680 122.81624 35967 ft 478 kts 221°
2026-05-07 14:52 26.79277 122.77343 35965 ft 479 kts 221°
2026-05-07 14:53 26.73830 122.73033 35965 ft 479 kts 221°
2026-05-07 14:53 26.68380 122.68726 35967 ft 480 kts 221°
2026-05-07 14:54 26.62929 122.64420 35966 ft 480 kts 221°
2026-05-07 14:54 26.57466 122.60109 35963 ft 480 kts 221°
2026-05-07 14:55 26.52002 122.55803 35968 ft 481 kts 221°
2026-05-07 14:55 26.46525 122.51492 35965 ft 481 kts 221°
2026-05-07 14:56 26.41051 122.47189 35965 ft 481 kts 221°
2026-05-07 14:56 26.35573 122.42887 35964 ft 482 kts 221°
2026-05-07 14:57 26.30086 122.38584 35963 ft 482 kts 221°
2026-05-07 14:57 26.24627 122.34307 35964 ft 482 kts 220°
2026-05-07 14:58 26.21893 122.32168 35839 ft 479 kts 220°
2026-05-07 14:58 26.19180 122.30048 35596 ft 474 kts 220°
2026-05-07 14:58 26.16483 122.27940 35376 ft 473 kts 220°
2026-05-07 14:58 26.13778 122.25824 35131 ft 474 kts 220°
2026-05-07 14:59 26.11078 122.23729 34892 ft 475 kts 219°
2026-05-07 14:59 26.08349 122.21640 34667 ft 475 kts 219°
2026-05-07 14:59 26.05635 122.19569 34429 ft 475 kts 219°
2026-05-07 14:59 26.02915 122.17493 34203 ft 473 kts 219°
2026-05-07 15:00 26.00203 122.15422 33973 ft 472 kts 218°
2026-05-07 15:00 25.97537 122.13386 33721 ft 469 kts 218°
2026-05-07 15:00 25.94820 122.11311 33460 ft 467 kts 218°
2026-05-07 15:00 25.92150 122.09273 32996 ft 464 kts 218°
2026-05-07 15:01 25.89523 122.07267 32161 ft 466 kts 218°
2026-05-07 15:01 25.86855 122.05230 31581 ft 461 kts 218°
2026-05-07 15:01 25.84232 122.03232 31096 ft 453 kts 218°
2026-05-07 15:01 25.81642 122.01259 30477 ft 449 kts 218°
2026-05-07 15:02 25.79080 121.99307 29863 ft 445 kts 218°
2026-05-07 15:02 25.77394 121.98023 29431 ft 441 kts 218°
2026-05-07 15:02 25.74874 121.96106 28794 ft 436 kts 218°
2026-05-07 15:02 25.72384 121.94212 28178 ft 431 kts 217°
2026-05-07 15:03 25.69926 121.92331 27542 ft 427 kts 218°
2026-05-07 15:03 25.66746 121.89798 26708 ft 420 kts 222°
2026-05-07 15:03 25.64642 121.87578 26098 ft 415 kts 230°
2026-05-07 15:03 25.63431 121.85949 25685 ft 411 kts 235°
2026-05-07 15:04 25.61434 121.82379 24887 ft 406 kts 242°
2026-05-07 15:04 25.60526 121.80571 24370 ft 406 kts 242°
2026-05-07 15:04 25.59133 121.77837 23789 ft 405 kts 242°
2026-05-07 15:04 25.57746 121.75139 23198 ft 401 kts 242°
2026-05-07 15:05 25.56371 121.72469 22602 ft 397 kts 242°
2026-05-07 15:05 25.55012 121.69828 21998 ft 393 kts 242°
2026-05-07 15:05 25.53665 121.67211 21415 ft 389 kts 242°
2026-05-07 15:05 25.52330 121.64616 20825 ft 386 kts 242°
2026-05-07 15:06 25.51004 121.62040 20231 ft 383 kts 242°
2026-05-07 15:06 25.49693 121.59492 19654 ft 381 kts 241°
2026-05-07 15:06 25.48254 121.57034 19073 ft 379 kts 234°
2026-05-07 15:06 25.46566 121.54795 18461 ft 379 kts 230°
2026-05-07 15:07 25.44837 121.52605 17871 ft 376 kts 231°
2026-05-07 15:07 25.43135 121.50430 17281 ft 372 kts 231°
2026-05-07 15:07 25.41451 121.48271 16737 ft 368 kts 231°
2026-05-07 15:07 25.39793 121.46146 16191 ft 364 kts 231°
2026-05-07 15:08 25.38138 121.44027 15638 ft 360 kts 231°
2026-05-07 15:08 25.36528 121.41968 15112 ft 356 kts 231°
2026-05-07 15:08 25.34915 121.39909 14587 ft 353 kts 231°
2026-05-07 15:08 25.33322 121.37874 14072 ft 350 kts 231°
2026-05-07 15:09 25.31728 121.35840 13521 ft 347 kts 231°
2026-05-07 15:09 25.30157 121.33836 12990 ft 342 kts 231°
2026-05-07 15:09 25.28611 121.31862 12477 ft 338 kts 231°
2026-05-07 15:09 25.27083 121.29914 11958 ft 334 kts 230°
2026-05-07 15:10 25.25562 121.27976 11463 ft 330 kts 230°
2026-05-07 15:10 25.24068 121.26072 10980 ft 326 kts 230°
2026-05-07 15:10 25.22590 121.24190 10499 ft 323 kts 230°
2026-05-07 15:10 25.21156 121.22367 10321 ft 311 kts 230°
2026-05-07 15:11 25.19771 121.20606 10214 ft 297 kts 230°
2026-05-07 15:11 25.18445 121.18922 10095 ft 285 kts 230°
2026-05-07 15:11 25.17159 121.17286 9912 ft 281 kts 230°
2026-05-07 15:11 25.15879 121.15658 9703 ft 282 kts 230°
2026-05-07 15:12 25.14593 121.14024 9429 ft 283 kts 230°
2026-05-07 15:12 25.13317 121.12404 9146 ft 277 kts 229°
2026-05-07 15:12 25.12066 121.10817 8857 ft 272 kts 229°
2026-05-07 15:12 25.10836 121.09256 8552 ft 267 kts 229°
2026-05-07 15:13 25.09621 121.07712 8187 ft 266 kts 229°
2026-05-07 15:13 25.08412 121.06175 7980 ft 268 kts 229°
2026-05-07 15:13 25.07184 121.04615 7731 ft 271 kts 229°
2026-05-07 15:13 25.05949 121.03047 7422 ft 268 kts 229°
2026-05-07 15:14 25.04730 121.01500 7125 ft 264 kts 229°
2026-05-07 15:14 25.03529 120.99976 6790 ft 262 kts 229°
2026-05-07 15:14 25.02351 120.98482 6536 ft 257 kts 229°
2026-05-07 15:14 25.01189 120.97009 6275 ft 252 kts 229°
2026-05-07 15:15 25.00024 120.95532 5688 ft 261 kts 229°
2026-05-07 15:15 24.98804 120.93988 5138 ft 268 kts 229°
2026-05-07 15:15 24.97590 120.92451 4908 ft 265 kts 229°
2026-05-07 15:15 24.96350 120.91019 4780 ft 261 kts 217°
2026-05-07 15:16 24.94664 120.90225 4666 ft 264 kts 189°
2026-05-07 15:16 24.92842 120.90388 4511 ft 268 kts 163°
2026-05-07 15:16 24.91255 120.91454 4272 ft 275 kts 137°
2026-05-07 15:16 24.90246 120.93222 4041 ft 276 kts 109°
2026-05-07 15:17 24.90089 120.95266 3995 ft 265 kts 83°
2026-05-07 15:17 24.90475 120.97198 3999 ft 251 kts 78°
2026-05-07 15:17 24.90815 120.99026 3995 ft 237 kts 83°
2026-05-07 15:17 24.90981 121.00792 3999 ft 225 kts 89°
2026-05-07 15:18 24.91135 121.02466 3998 ft 219 kts 75°
2026-05-07 15:18 24.91781 121.03974 3982 ft 217 kts 57°
2026-05-07 15:18 24.92678 121.05275 3951 ft 205 kts 51°
2026-05-07 15:18 24.93590 121.06441 3753 ft 199 kts 49°
2026-05-07 15:19 24.94493 121.07593 3576 ft 197 kts 49°
2026-05-07 15:19 24.95390 121.08736 3303 ft 195 kts 49°
2026-05-07 15:19 24.96248 121.09826 3030 ft 183 kts 49°
2026-05-07 15:19 24.97067 121.10870 2778 ft 179 kts 49°
2026-05-07 15:20 24.97867 121.11888 2534 ft 170 kts 49°
2026-05-07 15:20 24.98619 121.12845 2320 ft 159 kts 50°
2026-05-07 15:20 24.99329 121.13749 2114 ft 157 kts 50°
2026-05-07 15:20 25.00031 121.14644 1916 ft 151 kts 50°
2026-05-07 15:21 25.00712 121.15510 1714 ft 148 kts 50°
2026-05-07 15:21 25.01381 121.16363 1531 ft 147 kts 50°
2026-05-07 15:21 25.02044 121.17207 1350 ft 146 kts 50°
2026-05-07 15:21 25.02712 121.18058 1153 ft 146 kts 50°
2026-05-07 15:22 25.03372 121.18899 965 ft 144 kts 50°
2026-05-07 15:22 25.04025 121.19724 783 ft 143 kts 50°
2026-05-07 15:22 25.04679 121.20557 571 ft 142 kts 49°
2026-05-07 15:22 25.05341 121.21358 373 ft 143 kts 51°
2026-05-07 15:23 25.05980 121.22195 204 ft 142 kts 50°
2026-05-07 15:23 25.06598 121.23025 248 ft 139 kts 53°
2026-05-07 15:23 25.07207 121.23874 586 ft 142 kts 52°
2026-05-07 15:23 25.07894 121.24700 682 ft 146 kts 49°
2026-05-07 15:24 25.08611 121.25513 1086 ft 154 kts 42°
2026-05-07 15:24 25.09504 121.26380 1368 ft 187 kts 45°
2026-05-07 15:24 25.10482 121.27472 1566 ft 203 kts 42°
2026-05-07 15:24 25.11717 121.28214 2081 ft 205 kts 15°
2026-05-07 15:25 25.13116 121.28274 2581 ft 197 kts 348°
2026-05-07 15:25 25.14292 121.27672 2992 ft 181 kts 318°
2026-05-07 15:25 25.14988 121.26593 3371 ft 173 kts 288°
2026-05-07 15:25 25.15103 121.25275 3083 ft 172 kts 253°
2026-05-07 15:26 25.14626 121.24140 3374 ft 166 kts 240°
2026-05-07 15:26 25.14023 121.22975 3455 ft 181 kts 239°
2026-05-07 15:26 25.13389 121.21765 3445 ft 183 kts 239°
2026-05-07 15:26 25.12742 121.20554 3550 ft 182 kts 238°
2026-05-07 15:27 25.12095 121.19358 3794 ft 183 kts 238°
2026-05-07 15:27 25.11411 121.18166 3975 ft 183 kts 235°
2026-05-07 15:27 25.10675 121.17019 4009 ft 183 kts 234°
2026-05-07 15:27 25.09920 121.15888 3991 ft 183 kts 233°
2026-05-07 15:28 25.09187 121.14753 3968 ft 182 kts 235°
2026-05-07 15:28 25.08477 121.13591 3941 ft 183 kts 236°
2026-05-07 15:28 25.07794 121.12406 3905 ft 183 kts 238°
2026-05-07 15:28 25.07139 121.11201 3887 ft 183 kts 239°
2026-05-07 15:29 25.06515 121.09983 4020 ft 182 kts 240°
2026-05-07 15:29 25.05890 121.08765 4071 ft 184 kts 238°
2026-05-07 15:29 25.05203 121.07575 4111 ft 183 kts 235°
2026-05-07 15:29 25.04456 121.06443 4149 ft 183 kts 232°
2026-05-07 15:30 25.03677 121.05334 4095 ft 182 kts 231°
2026-05-07 15:30 25.02890 121.04237 4112 ft 183 kts 231°
2026-05-07 15:30 25.02086 121.03149 4105 ft 183 kts 231°
2026-05-07 15:30 25.01325 121.02026 4042 ft 183 kts 235°
2026-05-07 15:31 25.00680 121.00816 4002 ft 183 kts 240°
2026-05-07 15:31 25.00080 120.99578 3999 ft 183 kts 240°
2026-05-07 15:31 24.99457 120.98359 3998 ft 182 kts 238°
2026-05-07 15:31 24.98804 120.97163 3998 ft 182 kts 237°
2026-05-07 15:32 24.98133 120.95981 3998 ft 181 kts 237°
2026-05-07 15:32 24.97455 120.94808 3997 ft 182 kts 236°
2026-05-07 15:32 24.96773 120.93635 3997 ft 182 kts 236°
2026-05-07 15:32 24.96088 120.92457 3998 ft 182 kts 236°
2026-05-07 15:33 24.95406 120.91283 3997 ft 182 kts 236°
2026-05-07 15:33 24.94626 120.90198 3987 ft 182 kts 216°
2026-05-07 15:33 24.93448 120.89800 3997 ft 185 kts 178°
2026-05-07 15:33 24.92255 120.90327 3993 ft 190 kts 141°
2026-05-07 15:34 24.91573 120.91567 3997 ft 196 kts 104°
2026-05-07 15:34 24.91509 120.93074 3999 ft 198 kts 93°
2026-05-07 15:34 24.91462 120.94592 3997 ft 197 kts 95°
2026-05-07 15:34 24.91386 120.96100 4001 ft 197 kts 96°
2026-05-07 15:35 24.91303 120.97614 4000 ft 197 kts 96°
2026-05-07 15:35 24.91221 120.99117 3999 ft 197 kts 96°
2026-05-07 15:35 24.91143 121.00621 4000 ft 197 kts 95°
2026-05-07 15:35 24.91119 121.02125 3997 ft 197 kts 85°
2026-05-07 15:36 24.91551 121.03563 4007 ft 199 kts 62°
2026-05-07 15:36 24.92334 121.04818 4004 ft 199 kts 52°
2026-05-07 15:36 24.93231 121.05990 3872 ft 199 kts 49°
2026-05-07 15:36 24.94138 121.07138 3605 ft 198 kts 50°
2026-05-07 15:37 24.95031 121.08279 3344 ft 196 kts 49°
2026-05-07 15:37 24.95918 121.09405 3107 ft 190 kts 49°
2026-05-07 15:37 24.96756 121.10474 2852 ft 180 kts 49°
2026-05-07 15:37 24.97548 121.11481 2626 ft 168 kts 49°
2026-05-07 15:38 24.98292 121.12429 2421 ft 158 kts 49°
2026-05-07 15:38 24.99004 121.13335 2208 ft 156 kts 50°
2026-05-07 15:38 24.99701 121.14223 2021 ft 155 kts 50°
2026-05-07 15:38 25.00396 121.15108 1816 ft 150 kts 50°
2026-05-07 15:39 25.01068 121.15964 1625 ft 147 kts 50°
2026-05-07 15:39 25.01740 121.16820 1427 ft 146 kts 50°
2026-05-07 15:39 25.02404 121.17666 1257 ft 145 kts 50°
2026-05-07 15:39 25.03054 121.18494 1064 ft 144 kts 50°
2026-05-07 15:40 25.03715 121.19336 875 ft 143 kts 50°
2026-05-07 15:40 25.04362 121.20147 647 ft 142 kts 48°
2026-05-07 15:40 25.05015 121.20967 429 ft 140 kts 50°
2026-05-07 15:40 25.05648 121.21772 266 ft 141 kts 51°
2026-05-07 15:41 25.06275 121.22599 108 ft 140 kts 51°
2026-05-07 15:41 25.06839 121.23318 101 ft 103 kts 47°
2026-05-07 15:41 25.07236 121.23815 98 ft 67 kts 48°
2026-05-07 15:41 25.07386 121.24004 102 ft 18 kts 49°
2026-05-07 15:42 25.07478 121.24110 99 ft 20 kts 37°
2026-05-07 15:42 25.07599 121.24191 102 ft 21 kts 24°
2026-05-07 15:42 25.07637 121.24207 104 ft 4 kts 18°
2026-05-07 15:42 25.07682 121.24223 105 ft 9 kts 18°
2026-05-07 15:43 25.07755 121.24250 105 ft 13 kts 20°
2026-05-07 15:43 25.07852 121.24290 106 ft 16 kts 26°
2026-05-07 15:43 25.07935 121.24381 107 ft 19 kts 51°
2026-05-07 15:43 25.07997 121.24461 106 ft 11 kts 34°
2026-05-07 15:44 25.08066 121.24453 106 ft 12 kts 313°
2026-05-07 15:44 25.08138 121.24381 108 ft 16 kts 319°
2026-05-07 15:44 25.08230 121.24294 108 ft 12 kts 320°
2026-05-07 15:44 25.08300 121.24228 107 ft 16 kts 320°
2026-05-07 15:45 25.08394 121.24139 107 ft 20 kts 319°
2026-05-07 15:45 25.08508 121.24030 108 ft 23 kts 319°
2026-05-07 15:45 25.08570 121.23971 106 ft 3 kts 319°
2026-05-07 15:45 25.08608 121.23935 108 ft 11 kts 320°
2026-05-07 15:46 25.08635 121.23800 107 ft 13 kts 226°
2026-05-07 15:46 25.08566 121.23713 107 ft 17 kts 229°
2026-05-07 15:46 25.08517 121.23652 107 ft 8 kts 229°
2026-05-07 15:47 25.08458 121.23576 107 ft 0 kts 229°
2026-05-07 15:47 25.08450 121.23566 107 ft 5 kts 229°
2026-05-07 15:47 25.08418 121.23524 108 ft 6 kts 211°
2026-05-07 15:47 25.08380 121.23528 109 ft 7 kts 143°
2026-05-07 15:48 25.08331 121.23573 108 ft 10 kts 139°
2026-05-07 15:48 25.08310 121.23593 109 ft 0 kts 139°